Showing default

ORBCOMM FM 112, 41184

Orbit data source: Space-Track

ORBCOMM FM 112, 41184 is a payload satellite owned by Orbcomm (US) in LEO that was launched on Tue, 22 Dec 2015 UTC via an FALCON 9 launch vehicle from the Air Force Eastern Test Range (AFETR). Payload-class satellites include a variety of spacecraft equipped with specific instruments for various scientific and technological missions. These include communications satellites like Starlink; space stations such as the ISS; scientific satellites like the Hubble; Earth observation satellites from companies like Planet Labs, Umbra, and HawkEye 360; GPS; miniature CubeSats for education and research; and military/defense satellites.

Loading next visibility...
Identifier
41184, 2015-081F
Orbit
LEO
Last TLE update
3 hours ago
Origin
Manufacturer
SNC Louisville
Mission
Operational Commercial Communications
Bus & Motor
SN-100A, Unknown motor
Mass
172 kg wet, 158 kg dry
Launch date (UTC)
2015-12-22 (10 years ago)
Launch vehicle
FALCON 9
Launch site
Air Force Eastern Test Range (AFETR)
Object type
Payload
Rocket body
Debris
Shape & HBR
Box + 1 Pan + 1 Ant, 6.5 m
Radar Cross Section
2.222 m², Medium (>0.1 m² and < 1m²)

Expand to show TLE details & history

TLE from 3 hours ago
0 ORBCOMM FM 112
1 41184U 15081F   25199.55237314  .00000541  00000-0  15231-3 0  9994
2 41184  47.0003  47.1524 0001059 137.2516 222.8452 14.58273094510292
Epoch: 2025-07-18T13:15Z
TLE epoch observation values (Epoch: 2025-07-18T13:15:25.039Z)
Latitude
-0.00001°
Longitude
-88.30413°
Altitude
699.52 km
Speed
7.507 km/s
True Right ascension
03h 08m 36s
True Declination
0° 00' 00"
Sunlit
Object was in daylight at epoch
Visualization orbit readout
Latitude
-31.72724°
Longitude
-123.90124°
Altitude
708.663 km
Speed
7.501 km/s
Apparent Right ascension
21h 33m 21s
Apparent Declination
-52° 32' 38"
Sunlit
Object is in daylight
Visualization observer readout
Local Sidereal Time
05:06:38
Azimuth
230.869° WSW
Elevation
-43.949°
Doppler factor
1
Orbital elements
Apogee altitude
700.74 km
Perigee altitude
699.241 km
Semi-major axis
7,078.127 km
Eccentricity
0.00011
Inclination
47.0003°
RAAN
47.1524°
Arg. of periapsis
137.2516°
True anomaly
222.83695°
Mean anomaly
222.8452°
Eccentric anomaly
222.84107°
Mean motion
3.64473 °/min
Orbital period
98.77 mins
BSTAR
0.00015231
Loading maneuver chart data...
Loading SW <> Apogee altitude chart data...
Loading historical data...
Loading historical data...
Loading historical data...
Loading historical data...
Loading historical data...
Loading historical data...
Loading historical data...
|